Regional Weather Roundup
Issued by NWS

Home | Current Version | Previous Version | Text Only | Print | Product List | Glossary Off
Versions: 1 2 3 4 5 6 7 8 9 10 11 12 13 14 15 16 17 18 19 20 21 22 23 24 25 26 27 28 29 30 31 32 33 34 35 36 37 38 39 40 41 42 43 44 45 46 47 48 49 50

000
ASUS45 KTFX 192319
RWRMT
MONTANA HOURLY WEATHER ROUNDUP
NATIONAL WEATHER SERVICE GREAT FALLS MT
519 PM MDT FRI SEP 19 2014

NOTE: "FAIR" INDICATES FEW OR NO CLOUDS BELOW 12000 FEET WITH NO
SIGNIFICANT WEATHER AND/OR OBSTRUCTIONS TO VISIBILITY.

* THESE STATIONS ARE NOT UNDER NWS QUALITY CONTROL. THEY DO NOT
   REPORT WEATHER SUCH AS PRECIPITATION OR FOG.

MTZ001>007-043-200000-
WEST OF THE DIVIDE
CITY           SKY/WX    TMP DP  RH WIND       PRES   REMARKS
KALISPELL      CLOUDY    72  45  38 W10       30.02R
MISSOULA       CLOUDY    72  43  35 NW10      30.07R
BUTTE          CLOUDY    70  39  32 N16G24    30.10S
MULLAN PASS    CLOUDY    54  45  72 VRB5      30.19S
* ESSEX        N/A       64  44  48 NW2        N/A
* LINCOLN      N/A       67  43  42 W7G20      N/A
* LOOKOUT PASS N/A       60  46  60 VRB6       N/A
* POLSON       N/A       73  45  37 NW3G8      N/A
* RONAN APT    MOCLDY    72  46  40 N/A        N/A
* SEELEY LAKE  N/A       65  44  47 NW4G11     N/A
* THOMP F APT  PTCLDY    72  42  34 S7G16      N/A
$$

MTZ008-052>055-200000-
SOUTHWEST MONTANA
CITY           SKY/WX    TMP DP  RH WIND       PRES   REMARKS
BOZEMAN        CLOUDY    72  45  38 N7        30.01R
DILLON         CLEAR     75  37  25 W16       30.04S
W YELLOWSTONE  CLOUDY    64  45  50 SW15G21   30.14R
* THREE FORKS  PTCLDY    75  52  45 NW13G20    N/A
* BOULDER HILL N/A       68  37  32 SW1G11     N/A
* MONIDA PASS  N/A       67  44  44 E7         N/A
* RAYNOLDS PAS N/A       69  50  51 NE2G16     N/A
* WHITEHALL    N/A       77  43  30 NW14G21    N/A
* WISE RIVER   N/A       70  39  32 NW17G28    N/A
$$

MTZ009>010-012-014-046-048-049-054-200000-
EAST SLOPES AND CENTRAL MONTANA
CITY           SKY/WX    TMP DP  RH WIND       PRES   REMARKS
CUT BANK       CLEAR     72  43  35 W29G35    29.92R
GREAT FALLS    CLEAR     73  41  32 W26G33    29.93R
HELENA         CLOUDY    75  39  27 W20G28    30.02R
MALMSTROM AFB  PTCLDY    73  41  32 W24       29.95R
* CONRAD       CLEAR     72  48  43 SW23G33    N/A
* EAST GLACIER N/A       64  41  43 NW24G31    N/A
* MONARCH      N/A       62  39  43 W17        N/A
* PENDROY      N/A       67  45  45 NW27G35    N/A
* ROGERS PASS  N/A       63  40  43 SE8G19     N/A
* SAINT MARY   N/A       64  40  41 SW11G22    N/A
* SWEET GRASS  N/A       71  38  30 NW22G32    N/A
* WHITE SULPH  N/A       69  39  34 W11G27     N/A
$$

MTZ011-013-016-021-035-040-045-047-050-051-200000-
NORTH CENTRAL MONTANA
CITY           SKY/WX    TMP DP  RH WIND       PRES   REMARKS
HAVRE          MOCLDY    75  45  34 NW10      29.81S
LEWISTOWN      CLOUDY    72  43  35 W15G28    29.95R
* CHINOOK      PTCLDY    75  46  36 W9        29.80S
* CHESTER      N/A       75  39  27 W15G26     N/A
* DENTON       N/A       75  45  34 W19G29     N/A
* GEYSER       N/A       67  44  44 W19G26     N/A
* JUDITH GAP   N/A       66  48  52 VRB4       N/A
* LOMA         N/A       76  43  31 W21G29     N/A
$$

MTZ017>020-022>027-061-062-200000-
NORTHEAST MONTANA
CITY           SKY/WX    TMP DP  RH WIND       PRES   REMARKS
GLASGOW        PTCLDY    73  52  48 NW9       29.77S
GLENDIVE       MOCLDY    73  46  38 W16G26    29.82R
JORDAN         PTCLDY    75  45  34 NW18G28   29.83R
SIDNEY         MOCLDY    75  48  39 NW9       29.78R
WOLF POINT     PTCLDY    75  52  45 W12       29.77R
* BEAVER HILL  N/A       74  45  36 NW24G30    N/A
* CIRCLE       N/A       76  52  43 NW8G16     N/A
* LINDSAY DVD  N/A       72  45  38 W18G27     N/A
* NAVAJO       N/A       71  51  49 NW13G20    N/A
* SACO         N/A       74  55  52 W10G15     N/A
$$

MTZ028>042-056>058-200000-
SOUTHCENTRAL AND SOUTHEAST MONTANA
CITY           SKY/WX    TMP DP  RH WIND       PRES   REMARKS
BAKER          CLOUDY    75  46  36 W20G25    29.84R
BILLINGS       PTCLDY    73  43  34 N14       29.93R
LIVINGSTON     PTCLDY    75  43  32 W21G26    29.99R
MILES CITY     PTCLDY    79  46  31 NW18      29.84S
* LAUREL APT   PTCLDY    73  45  37 N/A        N/A
* ROUNDUP APT  MOCLDY    72  45  38 N/A        N/A
* ALZADA       N/A       76  47  36 NW12G19    N/A
* HYSHAM       N/A       72  43  35 W8G16      N/A
* LAME DEER    N/A       68  44  42 W8G16      N/A
* REED POINT   N/A       76  41  29 W18G23     N/A
* ROSCOE HILL  N/A       68  35  30 N7         N/A
$$

REGIONAL REPORTS...DAKOTAS
CITY           SKY/WX    TMP DP  RH WIND       PRES   REMARKS
WILLISTON      PTCLDY    73  50  44 NW13      29.75R
DICKINSON      CLOUDY    75  46  36 W20G28    29.75R
BEACH          N/A       73  45  37 NW24G30   29.82R
CROSBY         CLEAR     68  55  63 NW14      29.74R
TIOGA          CLEAR     68  50  53 NW17      29.77R
WATFORD CITY   CLEAR     73  48  41 NW16      29.74R
BISMARCK       MOCLDY    79  50  36 W17       29.67R
GRAND FORKS    PTCLDY    82  54  38 W15G24    29.50R
FARGO          CLEAR     79  66  65 SW12      29.55S
BUFFALO SD     PTCLDY    73  46  38 NW17      29.80R
RAPID CITY     PTCLDY    81  48  32 N10       29.85R
$$

REGIONAL REPORTS...WYOMING/IDAHO/WASHINGTON
CITY           SKY/WX    TMP DP  RH WIND       PRES   REMARKS
GILLETTE       PTCLDY    75  46  36 NW15      29.94R
SHERIDAN       PTCLDY    73  48  41 NW9       29.94R
CODY           PTCLDY   N/A N/A N/A N/A        N/A
YELLOWSTONE LA PTCLDY    63  37  38 W8        30.23S
SALMON         CLEAR     77  43  30 W5        29.98S
MULLAN PASS    CLOUDY    54  45  72 VRB5      30.19S
SAND POINT     MOCLDY    68  52  57 E7        30.03F
SPOKANE        MOCLDY    75  46  36 SW13      30.04F
$$

REGIONAL REPORTS...ALBERTA
CITY           SKY/WX    TMP DP  RH WIND       PRES   REMARKS
CALGARY        PTCLDY    72  37  28 W17G24    29.80S
LETHBRIDGE     PTCLDY    73  41  32 W32G40    29.81F
EDMONTON       FAIR      72  43  35 NW14      29.72S
WATERTON GATE  N/A       66  41  40 SW18G35    N/A
CARDSTON       N/A       68  45  44 W17G26     N/A
MILK RIVER     N/A       73  41  32 W23G31     N/A
$$

REGIONAL REPORTS...SASKATCHEWAN
CITY           SKY/WX    TMP DP  RH WIND       PRES   REMARKS
SWIFT CURRENT  FAIR      68  46  45 NW14      29.76R
MOOSE JAW      PTCLDY    70  52  53 W9        29.73F
REGINA         PTCLDY    68  52  57 NW12      29.72S
VAL MARIE      N/A       73  45  37 NW14       N/A
ASSINIBOIA     N/A       70  46  42 NW14       N/A
CORONACH       N/A       66  52  61 NW12G17    N/A

$$




USA.gov is the U.S. government's official web portal to all federal, state and local government web resources and services.